Simultaneous Nadir Overpasses (SNOs) Predictions

Prediction of SNOs between GOES-15 and METOP-A Satellite Orbit:

Table of predicted SNOs for the next 14.0 days since TLE Epoch: 3/6/2021
Index Date Time (GOES-15) GOES-15 Lat,Lon METOP-A Lat,Lon Distance(km) Time Diff (sec)
1 03/07/2021 17:06:22 0.12,-128.39 0.89,-131.79 388.39 80
2 03/08/2021 16:43:02 0.11,-128.40 -0.23,-126.82 179.58 80
3 03/10/2021 05:04:42 -0.12,-128.32 -0.83,-131.44 355.94 80
4 03/11/2021 04:41:22 -0.12,-128.34 0.29,-126.47 212.22 80
5 03/12/2021 17:02:55 0.13,-128.44 0.68,-131.08 299.90 80
6 03/13/2021 16:39:34 0.12,-128.45 -0.38,-126.09 268.14 80
7 03/15/2021 05:01:14 -0.13,-128.38 -0.63,-130.73 267.69 80
8 03/16/2021 04:37:54 -0.12,-128.39 0.43,-125.74 300.23 80
9 03/17/2021 16:59:26 0.13,-128.49 0.54,-130.36 212.49 80
10 03/18/2021 16:36:07 0.12,-128.49 -0.59,-125.38 354.96 80
